Regional Weather Roundup
Issued by NWS

Home | Current Version | Previous Version | Text Only | Print | Product List | Glossary On
Versions: 1 2 3 4 5 6 7 8 9 10 11 12 13 14 15 16 17 18 19 20 21 22 23 24 25 26 27 28 29 30 31 32 33 34 35 36 37 38 39 40 41 42 43 44 45 46 47 48 49 50
848
ASUS43 KMKX 221900
RWRWI

WISCONSIN REGIONAL WEATHER ROUNDUP
NATIONAL WEATHER SERVICE MILWAUKEE/SULLIVAN WI
200 PM CDT MON MAY 22 2017

NOTE: "FAIR" INDICATES FEW OR NO CLOUDS BELOW 12,000 FEET WITH NO
SIGNIFICANT WEATHER AND/OR OBSTRUCTIONS TO VISIBILITY.

WIZ001-002-006>008-014>016-023>028-222000-
NORTHWEST WISCONSIN

CITY           SKY/WX    TMP DP  RH WIND       PRES   REMARKS
SUPERIOR ARPT  NOT AVBL
ASHLAND        CLOUDY    50  45  83 SW14      29.79R
HAYWARD        CLOUDY    53  42  66 VRB7      29.80F
SIREN          CLOUDY    55  42  60 W12       29.82F
CUMBERLAND     CLOUDY    54  41  62 W18       29.82S
RICE LAKE      CLOUDY    57  42  58 W13       29.84S
CHETEK         CLOUDY    59  44  57 W8G16     29.82S
LADYSMITH      CLOUDY    56  43  59 W12G21    29.83R
EAU CLAIRE     MOSUNNY   64  42  44 W13G21    29.81F
MENOMONIE      MOSUNNY   63  43  47 SW15      29.83S
NEW RICHMOND   PTSUNNY   61  42  50 W16       29.83F
OSCEOLA        CLOUDY    59  44  57 W12G17    29.86S
$$

WIZ003>005-009-010-017-018-222000-
NORTH CENTRAL WISCONSIN

CITY           SKY/WX    TMP DP  RH WIND       PRES   REMARKS
MANITOWISH WTR CLOUDY    52  45  77 W10       29.78F
ARBOR VITAE    PTSUNNY   52  42  68 W12G18    29.78F
WOODRUFF       PTSUNNY   52  42  68 W12G18    29.78F
RHINELANDER    CLOUDY    56  41  57 W13G21    29.79F
EAGLE RIVER    CLOUDY    52  39  62 SW14G20   29.78F
LAND O LAKES   CLOUDY    53  40  62 W10       29.79F
PHILLIPS       CLOUDY    53  41  65 W6        29.79S
TOMAHAWK       CLOUDY    54  40  59 W8        29.80S
MEDFORD        CLOUDY    57  42  57 W13G21    29.80F
MERRILL        CLOUDY    60  42  53 SW13G22   29.80F
$$

WIZ029-030-035-036-043>047-222000-
CENTRAL WISCONSIN

CITY           SKY/WX    TMP DP  RH WIND       PRES   REMARKS
WAUSAU         PTSUNNY   60  42  51 SW15G23   29.80S
MOSINEE        PTSUNNY   63  43  48 W17G24    29.82F
MARSHFIELD     PTSUNNY   63  42  46 SW12      29.80F
STEVENS POINT  PTSUNNY   64  43  46 SW14      29.82F
WAUPACA        MOSUNNY   67  42  40 SW18      29.83F
WAUTOMA        MOSUNNY   68  47  46 SW15G23   29.83F
WISC RAPIDS    MOSUNNY   68  44  42 W14G31    29.82F
CAMP DOUGLAS   NOT AVBL
$$

WIZ011>013-019>022-031-037>040-048>050-222000-
NORTHEAST WISCONSIN

CITY           SKY/WX    TMP DP  RH WIND       PRES   REMARKS
ANTIGO         MOSUNNY   59  45  60 W16G25    29.81F
SHAWANO        CLOUDY    65  43  43 W12G18    29.83S
OCONTO         PTSUNNY   64  42  46 W13G21    29.82F
STURGEON BAY   PTSUNNY   62  44  51 SW12G21   29.84F
GREEN BAY      PTSUNNY   64  49  57 SW13      29.83F
MANITOWOC      NOT AVBL
APPLETON       NOT AVBL
CLINTONVILLE   PTSUNNY   64  41  42 W15G21    29.83F
OSHKOSH        MOSUNNY   66  46  48 SW13G23   29.83F
$$

WIZ032>034-041-042-053>061-222000-
SOUTHWEST WISCONSIN

CITY           SKY/WX    TMP DP  RH WIND       PRES   REMARKS
LA CROSSE      SUNNY     70  49  47 S13       29.83F
SPARTA         SUNNY     66  44  45 W7G16     29.85S
VIROQUA        MOSUNNY   64  47  55 SW9       29.87F
BOSCOBEL       SUNNY     65  53  65 SW8       29.88F
PRAIRIE DU CHI SUNNY     62  52  71 CALM      29.88S
PLATTEVILLE    PTSUNNY   62  54  73 S8        29.90F
$$

WIZ056-057-062-063-064-067-068-222000-
SOUTH CENTRAL WISCONSIN

CITY           SKY/WX    TMP DP  RH WIND       PRES   REMARKS
REEDSBURG      MOSUNNY   61  51  68 SW12G17   29.88S
BARABOO/DELLS  CLOUDY    60  50  67 SW7       29.88S
LONE ROCK      NOT AVBL
MINERAL POINT  CLOUDY    61  54  77 S8        29.90F
MADISON        LGT RAIN  57  50  77 S9        29.90F
MIDDLETON      CLOUDY    58  51  77 SW14      29.91F
WATERTOWN      CLOUDY    56  49  77 SW9       29.91F
MONROE         DRIZZLE   57  50  77 S8        29.93F
JANESVILLE     CLOUDY    63  48  59 W9        29.92F
$$

WIZ051-052-058>065-066-070>072-222000-
SOUTHEAST WISCONSIN

CITY           SKY/WX    TMP DP  RH WIND       PRES   REMARKS
MILWAUKEE      LGT RAIN  65  48  54 W17G23    29.93F
WAUKESHA       NOT AVBL
MILWAUKEE/TIMM PTSUNNY   61  46  59 SW13G24   29.92F
RACINE         MOSUNNY   67  46  47 SW16G23   29.94F
KENOSHA        MOSUNNY   69  49  48 W21G26    29.93F
FOND DU LAC    SUNNY     66  46  48 SW20G26   29.85F
SHEBOYGAN      MOSUNNY   67  50  54 SW16G26   29.85F
WEST BEND      CLOUDY    63  45  51 W13G22    29.89S
JUNEAU         CLOUDY    60  48  65 SW17      29.90F
$$

LSZ147-162-222000-
LAKE SUPERIOR

STATION/POSITION TIME  TEMP    WIND        PRES    WAVE
                       AIR SEA DIR/SP/G            HT/PER
                 (UTC) (F)     (DEG/KT/KT) (MB)    (FT/S)
W MID LAKE BUOY  1750   41 37  230/ 12/ 12 1007.9R   2/ 4
DEVILS ISLAND    1800   45     240/ 16/ 18 1008.1R
SAXON HARBOR     1840   54     210/  7/ 12 1008.5R
$$

LMZ867-665-643>646-222000-
LAKE MICHIGAN

STATION/POSITION TIME  TEMP    WIND        PRES    WAVE
                       AIR SEA DIR/SP/G            HT/PER
                 (UTC) (F)     (DEG/KT/KT) (MB)    (FT/S)
CHAMBERS ISLAND  1840   57     170/  8/ 13 1009.5F
N MID LAKE BUOY  1750   42 39  190/ 12/ 14 1011.4F   2/ 5
NORTHPORT PIER   1840   60     220/  9/ 17 1010.2R
KEWAUNEE LAKESHO 1830   62     240/ 13/ 20 1010.7F
SHEBOYGAN LAKESH 1800   61     230/ 16/ 21 1012.0F
PORT WASHINGTON  1830   68     240/ 12/ 21 1012.9F
ATWATER BUOY     1709   60     220/ 17/ 21 1013.5F
MILWAUKEE LAKESH 1840   61     250/ 16/ 20   N/A
S MID LAKE BUOY  1750   49 45  180/ 12/ 14 1015.3F   2/ 3
KENOSHA   LAKESH 1800   66     260/ 18/ 24 1013.9
$$

TC  - TEMPERATURE IN CELSIUS
VSB - VISIBILITY IN STATUTE MILES
WCI - WIND CHILL INDEX
HX  - HEAT INDEX





USA.gov is the U.S. government's official web portal to all federal, state and local government web resources and services.